This is the latest recevied weather packets stored in our database for station/object IW1QNQ-13. If no packets are shown the sender has not sent any weather packets the latest 10 day(s).
| Time | Temp. | Humidity | Pressure | Rain* | Wind** | Luminosity | Snow |
|---|---|---|---|---|---|---|---|
| 1787863486 | 27.78° C | 68% | 1022.3 hPa | - | - | - | - |
| 1787859897 | 27.78° C | 67% | 1021.8 hPa | - | - | - | - |
| 1787858696 | 27.78° C | 66% | 1021.4 hPa | - | - | - | - |
| 1787857496 | 27.78° C | 66% | 1021.1 hPa | - | - | - | - |
| 1787856295 | 27.78° C | 66% | 1021.5 hPa | - | - | - | - |
| 1787853893 | 27.78° C | 64% | 1020.7 hPa | - | - | - | - |
| 1787852692 | 28.33° C | 62% | 1020.9 hPa | - | - | - | - |
| 1787851491 | 28.33° C | 60% | 1021.1 hPa | - | - | - | - |
| 1787849090 | 29.44° C | 57% | 1021.2 hPa | - | - | - | - |
| 1787847889 | 29.44° C | 55% | 1021.3 hPa | - | - | - | - |
| 1787846688 | 29.44° C | 54% | 1021.4 hPa | - | - | - | - |
| 1787845487 | 30° C | 53% | 1021.7 hPa | - | - | - | - |
| 1787844286 | 29.44° C | 53% | 1022.1 hPa | - | - | - | - |
| 1787843085 | 30° C | 52% | 1022 hPa | - | - | - | - |
| 1787841885 | 30.56° C | 51% | 1022 hPa | - | - | - | - |
| 1787840684 | 30.56° C | 52% | 1022 hPa | - | - | - | - |
| 1787839483 | 32.22° C | 52% | 1021.7 hPa | - | - | - | - |
| 1787838296 | 31.11° C | 51% | 1021.8 hPa | - | - | - | - |
| 1787837096 | 30.56° C | 53% | 1021.6 hPa | - | - | - | - |
| 1787835895 | 31.11° C | 52% | 1021.8 hPa | - | - | - | - |
| 1787834694 | 31.67° C | 50% | 1021.6 hPa | - | - | - | - |
| 1787833493 | 32.22° C | 46% | 1021.9 hPa | - | - | - | - |
| 1787832292 | 31.67° C | 47% | 1022.1 hPa | - | - | - | - |
| 1787831091 | 32.22° C | 44% | 1022.2 hPa | - | - | - | - |
| 1787829891 | 32.78° C | 40% | 1022.4 hPa | - | - | - | - |
* Rain since midnight (hover to see other rain measurements)
** Current wind speed in m/s (hover to see current wind gust speed)